[[{"header":{"parameterUnit":"m.s-1","parameterCategory":1,"la1":30.2991,"la2":30.254,"lo1":-89.0895,"lo2":-89.0444,"dy":0.0017,"dx":0.0017,"nx":28,"ny":28,"refTime":"2026-02-01T09:00:00:Z","depth":0,"parameterNumber":2,"parameterNumberName":"U-component_of_WINDS"},"data":[0,0,0,0,0,0,0,0,0,0,0,0,0,0,0,0,0,0,0,0,0,0,0,0,0,0,0,0,0,0,0,0,0,0,0,0,0,0,0,0,0,0,0,0,0,0,0,0,0,0,0,0,0,0,0,0,0,0,2.8277,2.8279,0,2.84,2.8402,2.8403,2.8383,2.8381,2.8379,2.8377,2.8499,2.8505,2.851,0,0,0,0,0,0,0,0,0,0,0,0,0,2.8022,2.8027,2.8277,2.8279,2.828,2.84,2.8402,2.8403,2.8384,2.8381,2.8378,2.8376,2.8498,2.8504,2.851,0,0,0,0,0,0,0,0,0,0,0,0,0,2.8138,2.8029,2.8277,2.8285,2.8287,2.84,2.8402,2.8404,2.8384,2.8381,2.8378,2.8375,2.8496,2.8503,2.8511,2.8623,0,0,2.8535,2.8538,0,0,0,0,0,0,0,0,2.8131,2.8147,2.8282,2.8285,2.8287,2.8373,2.8357,2.8477,2.8385,2.8347,2.8377,2.8373,2.846,2.847,2.85,2.8628,2.8634,2.8536,2.854,2.8544,2.8546,0,0,0,0,0,0,0,2.8123,2.8142,2.8326,2.8284,2.8287,2.8281,2.8294,2.8379,2.8419,2.835,2.8349,2.8364,2.846,2.8493,2.8503,2.8635,2.8535,2.8542,2.8547,2.855,2.886,2.8864,0,0,0,0,0,0,2.8113,2.8135,2.8322,2.8329,2.82,2.8288,2.8303,2.8349,2.8419,2.8426,2.8367,2.8363,2.8481,2.8494,2.8507,2.8642,2.8544,2.8551,2.8556,2.8857,2.8861,2.8865,0,0,0,0,0,0,2.8108,2.813,2.8317,2.8232,2.8255,2.8296,2.8348,2.8353,2.8385,2.8431,2.8438,2.8392,2.8479,2.8496,2.8594,2.8646,2.8555,2.8562,2.8853,2.8858,2.8863,2.8912,0,0,0,0,0,0,2.8101,2.8128,2.8172,2.8233,2.826,2.8403,2.8351,2.8357,2.8399,2.8395,2.8457,2.8464,2.8478,2.8583,2.8602,2.8655,2.8568,2.8848,2.8855,2.8861,2.8906,2.8918,2.8929,0,0,0,0,0,2.8092,2.818,2.8174,2.8197,2.8315,2.8406,2.8421,2.8436,2.8403,2.8447,2.8476,2.8462,2.8637,2.8593,2.8614,2.867,2.8845,2.8853,2.8861,2.8901,2.8916,2.8929,0,0,0,0,0,0,2.8123,2.8188,2.8182,2.8294,2.8345,2.8402,2.8458,2.8451,2.8512,2.8505,2.852,2.8534,2.8633,2.8662,2.8611,2.8782,2.8736,2.8749,2.8759,2.8774,2.8786,2.8776,2.8574,0,0,0,0,0,2.8143,2.8212,2.8265,2.8358,2.8384,2.8417,2.8456,2.8464,2.8516,2.8537,2.8574,2.8625,2.8691,2.8734,2.8798,2.891,2.8923,2.896,2.8971,2.898,2.8991,2.9052,2.9068,2.8891,2.8891,2.8891,0,0,2.8184,2.8229,2.8271,2.8365,2.8406,2.8476,2.8435,2.8511,2.8562,2.8548,2.8643,2.8672,2.873,2.8835,2.8883,2.8862,2.9043,2.899,2.8998,2.9003,2.9061,2.9078,2.9093,2.8896,2.8895,2.8895,0,0,2.8296,2.8337,2.8419,2.846,2.8522,2.8543,2.8563,2.8622,2.8641,2.8737,2.8727,2.8789,2.8903,2.8944,2.898,2.9108,2.9096,2.9128,2.9187,2.9247,2.9261,2.9273,2.9318,2.9333,2.9138,2.9138,2.9138,0,2.8339,2.8446,2.8461,2.8539,2.858,2.8572,2.8654,2.8693,2.8772,2.88,2.8775,2.8918,2.8956,2.9071,2.9102,2.9132,2.9154,2.912,2.9258,2.927,2.9282,2.9325,2.9341,2.9142,2.9141,2.9141,2.9141,0,2.8496,2.857,2.8628,2.8706,2.8754,2.8833,2.8859,2.8906,2.8909,2.8932,2.9029,2.9075,2.9148,2.9175,2.9179,2.9291,2.9275,2.9254,2.9209,2.9302,2.9342,2.9359,2.9146,2.9145,2.9144,2.9143,0,0,2.863,2.8715,2.8737,2.8771,2.8839,2.8896,2.8974,2.9046,2.9085,2.914,2.9206,2.9303,2.9283,2.9324,2.9332,2.9384,2.9481,2.9356,2.9358,2.9377,2.9606,2.9621,2.964,2.9475,2.9478,2.9481,2.9601,0,2.8747,2.8887,2.8903,2.9027,2.9095,2.9089,2.9157,2.9205,2.9229,2.9289,2.9315,2.9384,2.9354,2.9378,2.9429,2.9459,2.9527,2.945,2.9534,2.9537,2.9519,2.9661,2.9677,2.9789,2.9617,2.962,2.9622,0,2.8903,2.8963,2.9094,2.9152,2.9181,2.9242,2.9309,2.9367,2.9422,2.9435,2.9481,2.9483,2.9562,2.9515,2.9624,2.9572,2.9607,2.9627,2.9631,2.9639,2.9584,2.9672,2.9825,2.9841,2.9647,2.9645,2.9643,0,2.8986,2.91,2.9193,2.9223,2.9293,2.9336,2.9367,2.9419,2.9461,2.9519,2.9547,2.9613,2.9649,2.97,2.9719,2.9683,2.9828,2.9782,2.984,2.984,2.987,2.9868,3.003,2.9895,2.9895,2.9894,2.9894,0,2.9115,2.9195,2.9232,2.9289,2.9378,2.9396,2.9483,2.9512,2.9558,2.9619,2.9618,2.9675,2.9697,2.9758,2.9773,2.9861,2.9878,2.989,2.9893,2.989,2.9888,2.9913,2.9905,2.9899,2.9898,2.9897,2.9896,0,2.9223,2.9251,2.9352,2.941,2.9427,2.949,2.9539,2.9594,2.9617,2.9696,2.9715,2.9751,2.9823,2.9847,2.9934,2.9944,3.0046,3.0043,3.0028,3.0028,3.0085,3.0079,3.0269,3.0294,3.0142,3.0144,3.0145,0,2.9303,2.9365,2.943,2.9472,2.9505,2.9572,2.9615,2.9635,2.968,2.9746,2.9792,2.9864,2.9922,3.0037,3.007,3.0137,3.0134,3.0196,3.0144,3.0139,3.0134,3.0129,3.0135,3.0205,3.0207,3.0208,3.0209,0,2.9442,2.9453,2.9516,2.9584,2.9635,2.9689,2.9742,2.9776,2.9803,2.9853,2.9927,2.9972,3.0061,3.0131,3.0199,3.023,3.0224,3.0225,3.0242,3.0239,3.0228,3.0234,3.0054,3.0221,3.0219,3.0219,3.0218,3.0218,2.9538,2.9592,2.9647,2.9717,2.9758,2.9807,2.9861,2.9892,2.9954,3.0028,3.0036,3.0115,3.0167,3.0258,3.0292,3.0353,3.0336,3.036,3.0366,3.0372,3.0376,3.0219,3.0366,3.0365,3.0365,3.0365,3.0365,0,2.9676,2.9711,2.9775,2.9848,2.9903,2.9894,2.9951,2.9997,3.0068,3.0117,3.0175,3.0259,3.0328,3.0367,3.0435,3.0477,3.0476,3.0494,3.049,3.0497,3.0388,3.0366,3.0493,3.0493,3.0493,3.0493,3.0493,3.0493,2.9754,2.9845,2.9862,2.9974,3.0007,3.0086,3.0119,3.0164,3.0203,3.0298,3.0355,3.0381,3.0426,3.0497,3.0559,3.0569,3.0594,3.0614,3.0621,3.0518,3.0505,3.0492,3.0472,3.0619,3.0619,3.0725,3.0726,3.0727]},{"header":{"parameterUnit":"m.s-1","parameterCategory":1,"la1":30.2991,"la2":30.254,"lo1":-89.0895,"lo2":-89.0444,"dy":0.0017,"dx":0.0017,"nx":28,"ny":28,"refTime":"2026-02-01T09:00:00:Z","depth":0,"parameterNumber":3,"parameterNumberName":"V-component_of_WINDS"},"data":[0,0,0,0,0,0,0,0,0,0,0,0,0,0,0,0,0,0,0,0,0,0,0,0,0,0,0,0,0,0,0,0,0,0,0,0,0,0,0,0,0,0,0,0,0,0,0,0,0,0,0,0,0,0,0,0,0,0,-3.1279,-3.1281,0,-3.1408,-3.1409,-3.1411,-3.1396,-3.1394,-3.1392,-3.139,-3.1521,-3.1526,-3.1531,0,0,0,0,0,0,0,0,0,0,0,0,0,-3.102,-3.1025,-3.1279,-3.1281,-3.1282,-3.1408,-3.1409,-3.1411,-3.1396,-3.1394,-3.1391,-3.1389,-3.1519,-3.1525,-3.1532,0,0,0,0,0,0,0,0,0,0,0,0,0,-3.1139,-3.1026,-3.1279,-3.129,-3.1292,-3.1407,-3.1409,-3.1412,-3.1397,-3.1394,-3.1391,-3.1388,-3.1517,-3.1524,-3.1532,-3.1644,0,0,-3.1557,-3.1561,0,0,0,0,0,0,0,0,-3.1132,-3.1148,-3.1287,-3.129,-3.1292,-3.1383,-3.1366,-3.149,-3.1398,-3.1357,-3.139,-3.1386,-3.1477,-3.1488,-3.1519,-3.165,-3.1656,-3.1558,-3.1563,-3.1566,-3.1569,0,0,0,0,0,0,0,-3.1124,-3.1143,-3.133,-3.1289,-3.1292,-3.1288,-3.1302,-3.1389,-3.1433,-3.136,-3.136,-3.1375,-3.1478,-3.1511,-3.1522,-3.1658,-3.1558,-3.1565,-3.157,-3.1573,-3.1887,-3.189,0,0,0,0,0,0,-3.1113,-3.1136,-3.1326,-3.1334,-3.1203,-3.1296,-3.1311,-3.1357,-3.1432,-3.144,-3.1378,-3.1374,-3.1499,-3.1513,-3.1527,-3.1662,-3.1566,-3.1574,-3.1578,-3.1883,-3.1888,-3.1891,0,0,0,0,0,0,-3.1108,-3.113,-3.1321,-3.1235,-3.1259,-3.1303,-3.1355,-3.1361,-3.1394,-3.1445,-3.1452,-3.1404,-3.1497,-3.1515,-3.1615,-3.1666,-3.1577,-3.1585,-3.1879,-3.1885,-3.189,-3.1934,0,0,0,0,0,0,-3.11,-3.1128,-3.1171,-3.1236,-3.1264,-3.1407,-3.1358,-3.1366,-3.1408,-3.1405,-3.1471,-3.1479,-3.1496,-3.1603,-3.1623,-3.1676,-3.1591,-3.1875,-3.1882,-3.1888,-3.1928,-3.194,-3.195,0,0,0,0,0,-3.1091,-3.1178,-3.1173,-3.1196,-3.1318,-3.141,-3.1426,-3.1444,-3.1413,-3.1456,-3.1489,-3.1477,-3.1658,-3.1613,-3.1636,-3.1692,-3.1872,-3.188,-3.1887,-3.1923,-3.1937,-3.195,0,0,0,0,0,0,-3.1118,-3.1187,-3.1182,-3.1293,-3.1346,-3.1408,-3.1463,-3.1459,-3.1521,-3.1515,-3.1534,-3.1549,-3.165,-3.1681,-3.1631,-3.1804,-3.176,-3.1773,-3.178,-3.1794,-3.1805,-3.1795,-3.1598,0,0,0,0,0,-3.1137,-3.1206,-3.1263,-3.1355,-3.1382,-3.1418,-3.1459,-3.1468,-3.1523,-3.1546,-3.1585,-3.1639,-3.1708,-3.1753,-3.1819,-3.1933,-3.1947,-3.1982,-3.1993,-3.2002,-3.2013,-3.2075,-3.2091,-3.1917,-3.1917,-3.1917,0,0,-3.1176,-3.1223,-3.1265,-3.1362,-3.1404,-3.1475,-3.1437,-3.1514,-3.1567,-3.1557,-3.1654,-3.1685,-3.1746,-3.1854,-3.1903,-3.1882,-3.2064,-3.2012,-3.2019,-3.2025,-3.2085,-3.2101,-3.2116,-3.1922,-3.1921,-3.1921,0,0,-3.1285,-3.1327,-3.1408,-3.1452,-3.1516,-3.154,-3.1559,-3.1622,-3.1642,-3.174,-3.1734,-3.1798,-3.1916,-3.196,-3.1997,-3.2124,-3.2115,-3.2145,-3.2202,-3.2263,-3.2276,-3.2289,-3.2333,-3.2349,-3.2155,-3.2155,-3.2155,0,-3.1325,-3.1433,-3.1451,-3.1529,-3.1571,-3.1567,-3.1649,-3.169,-3.1773,-3.1802,-3.1778,-3.1927,-3.1968,-3.2085,-3.2116,-3.2147,-3.217,-3.2137,-3.2273,-3.2285,-3.2297,-3.234,-3.2357,-3.2158,-3.2158,-3.2158,-3.2157,0,-3.148,-3.1554,-3.1612,-3.1693,-3.1742,-3.1822,-3.1852,-3.1899,-3.1905,-3.1931,-3.203,-3.2079,-3.2155,-3.2184,-3.219,-3.2303,-3.2288,-3.2269,-3.2225,-3.2317,-3.2357,-3.2373,-3.2163,-3.2162,-3.2161,-3.216,0,0,-3.1607,-3.1697,-3.1718,-3.1755,-3.1826,-3.1884,-3.1963,-3.2038,-3.2079,-3.2136,-3.2203,-3.2304,-3.2286,-3.2329,-3.234,-3.2393,-3.249,-3.2367,-3.2369,-3.2388,-3.2617,-3.263,-3.2649,-3.2485,-3.2488,-3.2491,-3.2611,0,-3.1722,-3.1863,-3.1882,-3.2007,-3.2076,-3.2073,-3.2143,-3.2194,-3.2221,-3.2283,-3.2312,-3.2383,-3.2355,-3.2381,-3.2434,-3.2467,-3.2536,-3.2458,-3.2547,-3.255,-3.2531,-3.267,-3.2685,-3.2796,-3.2627,-3.263,-3.2632,0,-3.1875,-3.1937,-3.2069,-3.2131,-3.216,-3.2222,-3.2293,-3.2352,-3.241,-3.2426,-3.2475,-3.2479,-3.2561,-3.2515,-3.2629,-3.2576,-3.2614,-3.2635,-3.264,-3.2648,-3.2596,-3.2682,-3.2832,-3.2849,-3.2657,-3.2655,-3.2653,0,-3.1954,-3.2071,-3.2165,-3.2196,-3.2271,-3.2314,-3.2347,-3.2402,-3.2446,-3.2508,-3.2537,-3.2607,-3.2645,-3.2699,-3.2722,-3.2687,-3.2835,-3.2791,-3.285,-3.2849,-3.288,-3.2878,-3.3038,-3.2906,-3.2906,-3.2905,-3.2905,0,-3.208,-3.216,-3.2201,-3.2259,-3.2349,-3.2371,-3.2459,-3.2491,-3.254,-3.2604,-3.2606,-3.2665,-3.2693,-3.2757,-3.2776,-3.2867,-3.2884,-3.2899,-3.2903,-3.2898,-3.2896,-3.2923,-3.2915,-3.291,-3.2909,-3.2908,-3.2907,0,-3.2183,-3.2214,-3.2316,-3.2379,-3.2396,-3.246,-3.2514,-3.257,-3.2596,-3.2677,-3.2697,-3.2739,-3.2814,-3.2843,-3.2935,-3.2947,-3.3053,-3.3051,-3.3033,-3.3034,-3.3091,-3.3085,-3.3274,-3.3299,-3.315,-3.3152,-3.3153,0,-3.2261,-3.2323,-3.2392,-3.2435,-3.247,-3.2539,-3.2584,-3.2608,-3.2655,-3.2726,-3.2773,-3.2849,-3.291,-3.3031,-3.3069,-3.314,-3.3139,-3.32,-3.3149,-3.3143,-3.3139,-3.3135,-3.3141,-3.3209,-3.3211,-3.3212,-3.3213,0,-3.2395,-3.2408,-3.2473,-3.2543,-3.2597,-3.2654,-3.2709,-3.2744,-3.2776,-3.2828,-3.2906,-3.2954,-3.3048,-3.3123,-3.3195,-3.3229,-3.3227,-3.3229,-3.3246,-3.3242,-3.3229,-3.3236,-3.3058,-3.3224,-3.3223,-3.3222,-3.3222,-3.3221,-3.2488,-3.2543,-3.2601,-3.2673,-3.2717,-3.2769,-3.2825,-3.2859,-3.2924,-3.3002,-3.3012,-3.3096,-3.3152,-3.325,-3.3287,-3.3352,-3.3336,-3.3361,-3.3367,-3.3373,-3.3377,-3.3219,-3.3366,-3.3365,-3.3365,-3.3365,-3.3365,0,-3.2623,-3.266,-3.2726,-3.2803,-3.286,-3.2854,-3.2914,-3.2962,-3.3036,-3.3089,-3.315,-3.3239,-3.3312,-3.3356,-3.3429,-3.3473,-3.3474,-3.3491,-3.3488,-3.3496,-3.3387,-3.3365,-3.349,-3.349,-3.349,-3.349,-3.3489,-3.3489,-3.2699,-3.2792,-3.2811,-3.2926,-3.2963,-3.3044,-3.308,-3.3127,-3.317,-3.3269,-3.333,-3.3359,-3.3409,-3.3486,-3.3552,-3.3563,-3.359,-3.3609,-3.3619,-3.3516,-3.3503,-3.3491,-3.347,-3.3615,-3.3615,-3.3722,-3.3723,-3.3723]}]]